Flag for U.S.A. Weather past 2 weeks in Vallejo, California, U.S.A.

Now
69 °F

Sunny.


Feels Like: 69 °F
Forecast: 43 / 70 °F
Wind: 7 mph from South

Location: Napa County Airport

Current Time: Mar 6, 2015 at 4:26:32 PM

Latest Report: Mar 6, 2015 at 3:54 PM


Visibility: 10 mi

Pressure: 30.13 "Hg

Humidity: 39%

Dew point: 43 °F

Location of VallejoLocation

Historic Weather in Vallejo — Graph

°F

Vallejo temperature yesterday

Maximum temperature yesterday: 68 °F (at 2:54 PM)
Minimum temperature yesterday: 38 °F (at 12:54 AM)
Average temperature yesterday: 51 °F

Past Weeks' High & Low Weather Summary

 TemperatureHumidityPressure
High70 °F (Feb 26, 2:54 PM)100% (Feb 19, 6:54 PM)30.34 "Hg (Feb 19, 6:54 PM)
Low30 °F (Feb 24, 3:54 AM)21% (Feb 23, 6:54 AM)29.68 "Hg (Feb 27, 5:54 PM)
Average50 °F73%30.00 "Hg
* Reported Feb 19 2:54 PM — Mar 6 2:54 PM, Vallejo, Weather by CustomWeather, © 2015

Note: Actual official high and low records may vary slightly from our data, if they occured in-between our weather recording intervals... More about our weather records

Advertising

Vallejo weather history for previous 24 hours

 ConditionsComfort  
Time TempWeatherWind HumidityBarometerVisibility
2:54 PM
Fri, Mar 6
68 °FSunny.6 mph42%30.15 "Hg10 mi
1:54 PM67 °FSunny.6 mph42%30.18 "Hg10 mi
12:54 PM67 °FSunny.6 mph39%30.21 "Hg10 mi
11:54 AM63 °FSunny.3 mph52%30.24 "Hg10 mi
10:54 AM61 °FSunny.5 mph58%30.25 "Hg10 mi
9:54 AM57 °FSunny.No wind64%30.27 "Hg10 mi
8:54 AM51 °FSunny.No wind77%30.28 "Hg10 mi
7:54 AM44 °FSunny.3 mph82%30.28 "Hg10 mi
6:54 AM36 °FSunny.3 mph92%30.27 "Hg10 mi
5:54 AM33 °FClear.3 mph96%30.27 "Hg10 mi
4:54 AM39 °FClear.6 mph86%30.26 "Hg10 mi
3:54 AM38 °FClear.3 mph90%30.25 "Hg10 mi
2:54 AM38 °FClear.No wind90%30.26 "Hg10 mi
1:54 AM42 °FClear.6 mph82%30.27 "Hg10 mi
12:54 AM43 °FClear.5 mph82%30.27 "Hg10 mi
11:54 PM
Thu, Mar 5
42 °FClear.6 mph82%30.27 "Hg10 mi
10:54 PM41 °FClear.No wind86%30.28 "Hg10 mi
9:54 PM42 °FClear.No wind82%30.28 "Hg10 mi
8:54 PM46 °FClear.3 mph77%30.27 "Hg10 mi
7:54 PM49 °FClear.5 mph71%30.26 "Hg10 mi
6:54 PM54 °FClear.3 mph62%30.25 "Hg10 mi
5:54 PM58 °FSunny.5 mph60%30.24 "Hg10 mi
4:54 PM65 °FSunny.7 mph45%30.24 "Hg10 mi
Weather by CustomWeather, © 2015

See weather overviewHow to use our weather pages